Regional Weather Roundup
Issued by NWS

Home | Current Version | Previous Version | Graphics & Text | Print | Product List | Glossary On
Versions: 1 2 3 4 5 6 7 8 9 10 11 12 13 14 15 16 17 18 19 20 21 22 23 24 25 26 27 28 29 30 31 32 33 34 35 36 37 38 39 40 41 42 43 44 45 46 47 48 49 50
000
ASUS43 KMPX 172310
RWRMN
WEATHER ROUNDUP FOR MINNESOTA
NATIONAL WEATHER SERVICE TWIN CITIES/CHANHASSEN MN
600 PM CDT WED SEP 17 2014


NOTE: "FAIR" INDICATES FEW OR NO CLOUDS BELOW 12,000 FEET WITH NO
SIGNIFICANT WEATHER AND/OR OBSTRUCTIONS TO VISIBILITY. N/A MEANS
CURRENT SKY AND/OR WEATHER CONDITIONS ARE NOT AVAILABLE.

MNZ060>063-068>070-180000-
   Twin Cities Metro

CITY           SKY/WX    TMP DP  RH WIND       PRES   REMARKS
TWIN CITIES    MOSUNNY   71  52  50 E7        29.94S
ST PAUL        SUNNY     70  53  54 NE7       29.95S
CRYSTAL        SUNNY     74  51  44 CALM      29.93S
LAKEVILLE      MOSUNNY   72  54  53 E6        29.94S
SOUTH ST PAUL  SUNNY     73  51  46 NE5       29.94S
LAKE ELMO      FAIR      72  55  56 CALM      29.96S
$$
MNZ001>005-007-008-013>017-022>024-027-028-180000-
   Northwest Minnesota

CITY           SKY/WX    TMP DP  RH WIND       PRES   REMARKS
BEMIDJI        SUNNY     62  49  62 NE9       30.01R
HALLOCK        SUNNY     61  45  55 NE12      30.05R
ROSEAU         SUNNY     52  41  66 E13       30.08S
WARROAD        MOSUNNY   48  41  76 NE9       30.10R
THIEF RVR FALL SUNNY     61  45  55 N15       30.02S
CROOKSTON      SUNNY     64  48  55 NE7       30.01S
FOSSTON        SUNNY     66  50  55 E3        30.02R
DETROIT LAKES  SUNNY     70  46  43 N3        29.98S
MOORHEAD       SUNNY     72  48  43 N8        29.98R
PARK RAPIDS    SUNNY     71  48  43 N6        29.97R
MAHNOMEN       FAIR      65  51  60 NE12      29.99R
$$
MNZ006-009>011-018-025>026-180000-
   North Central Minnesota

CITY           SKY/WX    TMP DP  RH WIND       PRES   REMARKS
BAUDETTE       MOSUNNY   51  40  65 NE9       30.08R
FLAG ISLAND    CLOUDY    46  37  71 NE5       30.09S
INTL FALLS       N/A     50  40  68 NE7       30.08S
WASKISH        SUNNY     57  45  62 N6        30.04R
BIG FORK       SUNNY     59  45  58 N9        30.03R
LONGVILLE      SUNNY     66  52  59 N5        29.98S
GRAND RAPIDS   SUNNY     63  48  59 N6        30.00S
CRANE LAKE     CLOUDY    50  43  76 NE3       30.09R
ORR            MOSUNNY   55  39  54 CALM      30.03R
COOK           PTSUNNY   54  45  71 NE3       30.05R
WALKER         FAIR      63  53  67 NE6       29.99R
$$
MNZ012-019>021-037-180000-
   Northeast Minnesota

CITY           SKY/WX    TMP DP  RH WIND       PRES   REMARKS
DULUTH         CLOUDY    46  40  79 E16       30.05R
ELY            CLOUDY    46  43  87 SE7       30.07R
HIBBING        CLOUDY    54  45  71 SE14      30.03R
EVELETH        PTSUNNY   52  45  76 E9        30.05S
DULUTH HARBOR  CLOUDY    50  45  81 NE26      30.06S
TWO HARBORS    CLOUDY    45  37  76 E9G17     30.06R
SILVER BAY     MOSUNNY   43  43 100 NE10      30.07S
GRAND MARAIS     N/A     45  40  82 NE7       30.11R
G MARAIS ARPRT CLOUDY    43  36  75 N6        30.09R
$$
MNZ029>031-032-039>041-046>048-054>057-064-180000-
   West Central Minnesota

CITY           SKY/WX    TMP DP  RH WIND       PRES   REMARKS
FERGUS FALLS   SUNNY     72  39  30 NE5       29.96R
WHEATON        SUNNY     70  52  52 NE5       29.96S
MORRIS         SUNNY     72  52  49 NE6       29.94S
ALEXANDRIA     PTSUNNY   70  52  52 E6        29.98R
ELBOW LAKE     FAIR      71  52  50 NE6       29.96R
WADENA         SUNNY     72  46  40 CALM      29.96S
GLENWOOD       MOSUNNY   73  52  46 E5        29.97S
APPLETON       MOSUNNY   73  54  49 CALM      29.94R
BENSON         SUNNY     73  54  49 NE5       29.95R
ORTONVILLE     MOSUNNY   73  50  43 CALM      29.95R
MADISON        MOSUNNY   75  57  53 CALM      29.94S
WILLMAR        FAIR      73  52  46 NE3       29.96R
$$
MNZ033>034-036-042>043-049>051-058-059-180000-
   Central Minnesota

CITY           SKY/WX    TMP DP  RH WIND       PRES   REMARKS
ST CLOUD       MOSUNNY   74  52  46 NE6       29.95S
SAUK CENTRE    FAIR      71  52  51 NE6       29.96S
PAYNESVILLE    SUNNY     69  50  50 N5        29.96R
AITKIN         PTSUNNY   73  50  43 N7        29.95S
PINE RIVER     SUNNY     68  52  56 N7        30.01R
BRAINERD       MOSUNNY   70  47  43 N3        29.97S
STAPLES        SUNNY     72  43  35 CALM      29.97R
LONG PRAIRIE   PTSUNNY   70  52  52 N6        29.97S
LITTLE FALLS   SUNNY     68  52  56 CALM      29.97R
LITCHFIELD     SUNNY     72  55  56 CALM      29.96R
BUFFALO        SUNNY     70  55  57 N3        29.96S
MAPLE LAKE     SUNNY     71  57  61 NE5       29.96R
$$
MNZ037-044-045-052-053-180000-
   East Central Minnesota

CITY           SKY/WX    TMP DP  RH WIND       PRES   REMARKS
PRINCETON      SUNNY     73  52  46 N2        29.95S
MORA           SUNNY     70  50  49 CALM      29.97S
CAMBRIDGE      SUNNY     73  54  49 CALM      29.94S
RUSH CITY      SUNNY     71  51  49 CALM      29.95S
MOOSE LAKE     CLOUDY    50  45  81 E12G18    30.00R
HINCKLEY       CLOUDY    64  55  72 NE7       29.96R
CLOQUET        CLOUDY    46  43  87 E12G24    30.04R
MCGREGOR       MOSUNNY   59  50  72 E14       29.99R
$$
MNZ071>073-080-081-089-090-097-098-180000-
   Southwest Minnesota

CITY           SKY/WX    TMP DP  RH WIND       PRES   REMARKS
MONTEVIDEO     SUNNY     72  52  49 CALM      29.95S
GRANITE FALLS  SUNNY     74  51  44 NE3       29.95S
CANBY          SUNNY     73  55  52 CALM      29.95S
MARSHALL       PTSUNNY   75  52  43 E6        29.93S
REDWOOD FALLS  MOSUNNY   77  50  38 CALM      29.93S
OLIVIA         SUNNY     73  52  46 NE5       29.94R
PIPESTONE      PTSUNNY   73  54  49 E5        29.95R
WINDOM         SUNNY     73  55  53 N6        29.94S
WORTHINGTON    SUNNY     73  55  53 E5        29.94R
JACKSON        PTSUNNY   75  52  43 NE8       29.94S
TRACY          SUNNY     74  55  52 CALM      29.95R
SLAYTON        SUNNY     72  55  54 CALM      29.95S
$$
MNZ065>067-074>077-082>085-091>093-180000-
   South Central Minnesota

CITY           SKY/WX    TMP DP  RH WIND       PRES   REMARKS
MANKATO        SUNNY     73  52  46 NE5       29.94S
NEW ULM        SUNNY     73  54  49 E3        29.94R
FAIRMONT       MOSUNNY   75  52  43 NE5       29.93S
GLENCOE        SUNNY     74  52  47 CALM      29.94S
FARIBAULT      SUNNY     75  46  35 CALM      29.95S
OWATONNA       SUNNY     72  52  49 NE3       29.95S
WASECA         MOSUNNY   72  50  46 NE6       29.96S
ALBERT LEA     MOSUNNY   73  54  49 E7        29.95R
$$
MNZ078>079-086>088-094>096-180000-
   Southeast Minnesota

CITY           SKY/WX    TMP DP  RH WIND       PRES   REMARKS
ROCHESTER      MOSUNNY   70  50  49 CALM      29.97S
RED WING       SUNNY     72  54  53 SE3       29.94R
STANTON        MOSUNNY   73  52  47 CALM      29.93S
DODGE CENTER   MOSUNNY   72  52  49 E3        29.96S
WINONA         MOSUNNY   70  54  56 CALM      29.96S
AUSTIN         MOSUNNY   72  52  49 CALM      29.95S
PRESTON        SUNNY     68  55  62 CALM      29.97S
$$
ABBREVIATIONS USED IN REMARKS
   TC - TEMPERATURES IN CELSIUS
  WCI - WIND CHILL INDEX
   HX - HEAT INDEX
  VSB - VISIBILITY
$$



USA.gov is the U.S. government's official web portal to all federal, state and local government web resources and services.